Regional Weather Roundup
Issued by NWS Northern Indiana

Home | Current Version | Previous Version | Graphics & Text | Print | Product List | Glossary On
Versions: 1 2 3 4 5 6 7 8 9 10 11 12 13 14 15 16 17 18 19 20 21 22 23 24 25 26 27 28 29 30 31 32 33 34 35 36 37 38 39 40 41 42 43 44 45 46 47 48 49 50
000
ASUS43 KIWX 220610
RWRIWX

KIWX WEATHER ROUNDUP
NATIONAL WEATHER SERVICE NORTHERN INDIANA
200 AM EDT FRI MAY 22 2015

NOTE: "FAIR" INDICATES FEW OR NO CLOUDS BELOW 12,000 FEET WITH NO
SIGNIFICANT WEATHER AND/OR OBSTRUCTIONS TO VISIBILITY.

* THESE STATIONS ARE NOT UNDER NWS QUALITY CONTROL. THEY ALSO MAY NOT
  REPORT WEATHER SUCH AS PRECIPITATION OR FOG.

INZ001>027-220700-
NORTHERN INDIANA

CITY           SKY/WX    TMP DP  RH WIND       PRES   REMARKS
GARY*          CLEAR     57  39  51 SW5       30.05S
VALPARAISO     CLEAR     53  37  54 SW9       30.05F
6HR MIN TEMP:  50; 6HR MAX TEMP:  64;

MICHIGAN CITY* PTCLDY    52  36  54 SW8       30.04S
LAPORTE*       PTCLDY    53  39  59 SW8       30.04S
6HR MIN TEMP:  52; 6HR MAX TEMP:  65;

KNOX*          CLEAR     50  34  53 SW6       30.05S
SOUTH BEND     PTCLDY    55  35  47 SW10      30.04S
6HR MIN TEMP:  52; 6HR MAX TEMP:  63;

GOSHEN         CLEAR     49  38  65 SW9       30.04S
6HR MIN TEMP:  48; 6HR MAX TEMP:  60;

MONTICELLO*    CLEAR     50  40  68 SW8       30.08R
6HR MIN TEMP:  49; 6HR MAX TEMP:  64;

LOGANSPORT*    CLEAR     46  36  66 SW8       30.09S
ROCHESTER*     CLEAR     54  37  54 SW7       30.07S
WARSAW*        CLEAR     50  37  62 SW5       30.05F
ANGOLA*        CLEAR     52  37  58 W5        30.03S
FORT WAYNE     CLEAR     46  40  79 SW9       30.06F
6HR MIN TEMP:  46; 6HR MAX TEMP:  61;

HUNTINGTON*    CLEAR     46  39  77 SW3       30.06F
6HR MIN TEMP:  46; 6HR MAX TEMP:  60;

PERU/GRISSOM   CLEAR     50  40  68 W8        30.07S
6HR MIN TEMP:  46; 6HR MAX TEMP:  63;

MARION*        CLEAR     48  38  70 SW7       30.09F
6HR MIN TEMP:  29; 6HR MAX TEMP:  86;


$$
INZ028>050-220700-
CENTRAL INDIANA

CITY           SKY/WX    TMP DP  RH WIND       PRES   REMARKS
LAFAYETTE      CLEAR     47  40  76 W5        30.10S
6HR MIN TEMP:  47; 6HR MAX TEMP:  63;

KOKOMO*        CLEAR     50  39  66 W8        30.09S
6HR MIN TEMP:  50; 6HR MAX TEMP:  63;

MUNCIE*        CLEAR     50  39  66 SW7       30.09S
6HR MIN TEMP:  50; 6HR MAX TEMP:  60;

INDIANAPOLIS   CLEAR     47  41  80 SW8       30.11S
6HR MIN TEMP:  47; 6HR MAX TEMP:  62;


$$
MIZ043>046-050>051-056>058-064>065-071>073-077>080-220700-
SOUTHWEST LOWER MICHIGAN

CITY           SKY/WX    TMP DP  RH WIND       PRES   REMARKS
BATTLE CREEK   MOCLDY    54  38  54 W6        30.02R
6HR MIN TEMP:  51; 6HR MAX TEMP:  61;

BENTON HARBOR  CLOUDY    55  41  59 W9        30.05R
6HR MIN TEMP:  52; 6HR MAX TEMP:  60;

COLDWATER*     CLOUDY    51  35  52 SW6       30.01F
6HR MIN TEMP:  49; 6HR MAX TEMP:  59;

HILLSDALE*     MOCLDY    57  33  41 W8        30.02S
6HR MIN TEMP:  53; 6HR MAX TEMP:  60;

HOLLAND        MOCLDY    52  40  63 N3        30.04R
6HR MIN TEMP:  52; 6HR MAX TEMP:  60;

GRAND RAPIDS   CLOUDY    53  45  74 N7        30.03R
6HR MIN TEMP:  53; 6HR MAX TEMP:  61; 6HR PCP: TRACE;

KALAMAZOO      MOCLDY    58  36  43 W8        30.02R
6HR MIN TEMP:  51; 6HR MAX TEMP:  62;

STURGIS*       CLOUDY    52  37  58 SW3       30.02F
THREE RIVERS*  MOCLDY    51  39  64 S3        30.02F
6HR MIN TEMP:  49; 6HR MAX TEMP:  60;


$$
OHZ001>008-015>018-024>025-220700-
NORTHWEST OHIO

CITY           SKY/WX    TMP DP  RH WIND       PRES   REMARKS
WAUSEON*       CLOUDY    52  36  54 W9        30.02F
DEFIANCE       CLEAR     46  37  71 SW5       30.04S
6HR MIN TEMP:  46; 6HR MAX TEMP:  62;

FINDLAY        CLEAR     48  38  68 SW6       30.04S
6HR MIN TEMP:  47; 6HR MAX TEMP:  60;

TOLEDO EXPRESS MOCLDY    51  34  52 SW5       30.02S
6HR MIN TEMP:  49; 6HR MAX TEMP:  62;

TOLEDO METCALF PTCLDY    50  36  58 SW8       30.03S
6HR MIN TEMP:  47; 6HR MAX TEMP:  62;

LIMA           CLEAR     48  38  68 SW6       30.06F
6HR MIN TEMP:  48; 6HR MAX TEMP:  58;


$$
AND FOR LAKE MICHIGAN COASTAL AND OPEN LAKE BUOY OBSERVATIONS

STATION/POSITION TEMP    WIND        PRES    VSBY  WAVE
                 AIR SEA DIR/SP/G                  HT/PER
                 (F)     (DEG/KT/KT) (MB)    (MI)  (FT/S)
CALUMET HARBOR    60     230/  9/ 12   N/A
MICHIGAN CITY     58     190/ 16/ 20   N/A
BURNS HARBOR      58     210/ 14/ 18 1017.6R
SAINT JOSEPH      56     290/  9/ 12 1017.9F
SOUTH LAKE BUOY   42 38  280/  4/  8 1018.0R         1
4 MI NW BRIDGMAN  55 53  330/  8/ 12   N/A           2/ 2
MICHIGAN CITY     56 51  230/ 12/ 16   N/A           1

$$
&&


USA.gov is the U.S. government's official web portal to all federal, state and local government web resources and services.